Location: Cormont
(50.5693°N, 1.7416°E)
Time: 10:46:32
(UTC+00:00)

Cosmos 2061 Rocket - Pass Details

Date: 21 October 2019
Orbit: 965 x 1013 km, 82.9° (Epoch: 21 November)

Event Time Altitude Azimuth Distance (km) Brightness Sun altitude
Rises 18:36:14 0° 352° (N) 3,697 7.2 -17.6°
Reaches altitude 10° 18:38:51 10° 357° (N) 2,739 6.4 -18.0°
Maximum altitude 18:44:58 53° 74° (ENE) 1,181 4.1 -19.0°
Enters shadow 18:49:21 19° 145° (SE) 2,125 5.4 -19.7°
